FW5771 Weather Reports


time (UTC)temp
C
wind
direction
speed
KPH
gust
KPH
rain 1hr
cm
rain 24hr
cm
rain mn
cm
humidity
%
barometer
mb
20260504001545 28 123 1.6 12.9 0.00 0.00 0.00 35 1005.6
20260504000048 29 68 0.0 6.4 0.00 0.00 0.00 38 1005.9
20260503234541 29 92 3.2 9.7 0.00 0.00 0.00 35 1005.9
20260503233038 28 132 3.2 14.5 0.00 0.00 0.00 35 1006.1
20260503231536 28 127 6.4 16.1 0.00 0.00 0.00 36 1006.3
20260503230133 28 62 0.0 12.9 0.00 0.00 0.00 37 1006.5
20260503224529 28 81 0.0 12.9 0.00 0.00 0.00 37 1006.8
20260503223026 27 96 3.2 14.5 0.00 0.00 0.00 37 1007.0
20260503221525 27 105 3.2 11.3 0.00 0.00 0.00 37 1007.2
20260503220021 27 32 6.4 12.9 0.00 0.00 0.00 38 1007.4
20260503214535 27 96 3.2 14.5 0.00 0.00 0.00 39 1007.7
20260503213014 26 115 3.2 16.1 0.00 0.00 0.00 40 1007.8
20260503211512 26 71 3.2 12.9 0.00 0.00 0.00 41 1007.9
20260503210009 26 80 4.8 14.5 0.00 0.00 0.00 41 1008.1
20260503204506 26 103 3.2 14.5 0.00 0.00 0.00 42 1008.3
20260503203003 25 80 3.2 14.5 0.00 0.00 0.00 42 1008.5
20260503201602 25 76 4.8 16.1 0.00 0.00 0.00 44 1008.7
20260503200111 25 111 3.2 17.7 0.00 0.00 0.00 45 1008.9
20260503194602 24 58 3.2 14.5 0.00 0.00 0.00 47 1009.0
20260503193101 23 123 4.8 16.1 0.00 0.00 0.00 46 1009.2
20260503191554 23 76 8.0 16.1 0.00 0.00 0.00 47 1009.4
20260503190049 23 106 3.2 16.1 0.00 0.00 0.00 50 1009.6
20260503184557 22 178 6.4 16.1 0.00 0.00 0.00 50 1009.8
20260503183043 22 66 3.2 12.9 0.00 0.00 0.00 52 1010.1
20260503181547 22 138 4.8 12.9 0.00 0.00 0.00 52 1010.1
20260503180047 21 109 8.0 16.1 0.00 0.00 0.00 53 1010.2
20260503174544 21 142 8.0 14.5 0.00 0.00 0.00 53 1010.3
20260503173040 21 150 3.2 11.3 0.00 0.00 0.00 54 1010.5
20260503171526 20 145 6.4 12.9 0.00 0.00 0.00 56 1010.5
20260503130155 8 128 0.0 0.0 0.00 0.00 0.00 92 1010.6
20260503081537 11 128 0.0 0.0 0.00 0.00 0.00 86 1011.0
20260503071516 12 128 0.0 0.0 0.00 0.00 0.00 85 1011.0
20260503054516 14 128 0.0 0.0 0.00 0.00 0.00 78 1010.8
20260503053013 14 128 0.0 0.0 0.00 0.00 0.00 76 1010.8
20260503051523 15 128 0.0 0.0 0.00 0.00 0.00 73 1010.8
20260503050009 16 128 0.0 0.0 0.00 0.00 0.00 70 1010.6
20260503044508 16 128 0.0 0.0 0.00 0.00 0.00 68 1010.5
20260503043008 17 128 0.0 0.0 0.00 0.00 0.00 66 1010.3
20260503041509 17 128 0.0 0.0 0.00 0.00 0.00 64 1010.1
20260503040007 18 128 0.0 0.0 0.00 0.00 0.00 63 1009.8
20260503034506 18 128 0.0 0.0 0.00 0.00 0.00 62 1009.7
20260503033011 19 128 0.0 0.0 0.00 0.00 0.00 62 1009.5
20260503031508 20 128 0.0 3.2 0.00 0.00 0.00 59 1009.4
20260503030007 21 114 0.0 6.4 0.00 0.00 0.00 57 1009.2
20260503024504 21 129 0.0 4.8 0.00 0.00 0.00 58 1009.1
20260503023003 22 129 0.0 3.2 0.00 0.00 0.00 55 1009.0
20260503021503 23 129 0.0 4.8 0.00 0.00 0.00 54 1008.8
20260503020002 23 132 0.0 4.8 0.00 0.00 0.00 50 1008.8
20260503014501 23 161 0.0 8.0 0.00 0.00 0.00 50 1008.7
20260503013100 23 167 0.0 3.2 0.00 0.00 0.00 50 1008.8
20260503011604 23 68 1.6 6.4 0.00 0.00 0.00 51 1008.9
20260503010108 23 73 8.0 12.9 0.00 0.00 0.00 50 1008.9
20260503004555 23 89 1.6 6.4 0.00 0.00 0.00 52 1009.0
20260503003108 23 118 0.0 11.3 0.00 0.00 0.00 51 1009.1